^^

..:: Storico WU ::..




Lo storico viene creato da WUnderground con i dati che la stazione Meteomincio invia al loro server. L' aggiornamento viene fatto ogni 5 minuti circa, tuttavia possono esserci intervalli pił ampi a causa di errori, interruzioni di servizio o problemi nell' invio tramite FTP.


Storico stazione MeteoMincio
Giorno Sommario per Ottobre 11, 2022 Unità:  Inglese    Metrico   Entrambi
Giorno Settimana Mese Anno
  Max: Min: Media:
Temperatura: 75.2 °F 53.6 °F 63.3 °F
Dew Point: 60.8 °F 51.8 °F 56.3 °F
Umidità: 94% 57% 80%
Velocità vento: 7.5mph 0mph 3.2mph
Raffica: 10.6mph - -
Direzione- - SSW
Pressione: 30.2 in 30.1 in -
Precipitazioni: 0 in    
 
 
Tabulato Dati per Ottobre 11, 2022
Ora Temperatura Dew Point Pressione Direzione Velocità vento Raffica Umidità Intensità pioggia (oraria) Info solare Situazione
00:04 59 °F 55.4 °F 30.1 in West 1.9 mph 2.5 mph 85% 0 in 0.00 W/m2 unknown
00:09 59 °F 55.4 °F 30.1 in West 1.9 mph 2.5 mph 85% 0 in 0.00 W/m2 unknown
00:14 59 °F 53.6 °F 30.1 in WSW 2.5 mph 3.7 mph 86% 0 in 0.00 W/m2 unknown
00:19 59 °F 53.6 °F 30.1 in WSW 3.7 mph 3.7 mph 86% 0 in 0.00 W/m2 unknown
00:24 59 °F 53.6 °F 30.1 in WSW 3.7 mph 3.7 mph 87% 0 in 0.00 W/m2 unknown
00:29 57.2 °F 53.6 °F 30.1 in West 3.7 mph 3.7 mph 87% 0 in 0.00 W/m2 unknown
00:34 57.2 °F 53.6 °F 30.1 in West 3.7 mph 5 mph 87% 0 in 0.00 W/m2 unknown
00:39 57.2 °F 53.6 °F 30.1 in West 3.7 mph 5 mph 87% 0 in 0.00 W/m2 unknown
00:44 57.2 °F 53.6 °F 30.1 in West 3.1 mph 5 mph 87% 0 in 0.00 W/m2 unknown
00:49 57.2 °F 53.6 °F 30.1 in West 1.9 mph 3.1 mph 87% 0 in 0.00 W/m2 unknown
00:54 57.2 °F 53.6 °F 30.1 in West 1.2 mph 2.5 mph 87% 0 in 0.00 W/m2 unknown
00:59 57.2 °F 53.6 °F 30.1 in West 1.9 mph 3.7 mph 87% 0 in 0.00 W/m2 unknown
01:04 57.2 °F 53.6 °F 30.1 in West 3.1 mph 3.7 mph 87% 0 in 0.00 W/m2 unknown
01:09 57.2 °F 53.6 °F 30.1 in WSW 2.5 mph 3.7 mph 88% 0 in 0.00 W/m2 unknown
01:14 57.2 °F 53.6 °F 30.1 in WSW 1.9 mph 3.7 mph 88% 0 in 0.00 W/m2 unknown
01:19 57.2 °F 53.6 °F 30.1 in WSW 2.5 mph 3.7 mph 88% 0 in 0.00 W/m2 unknown
01:24 57.2 °F 53.6 °F 30.1 in WSW 2.5 mph 3.7 mph 89% 0 in 0.00 W/m2 unknown
01:29 57.2 °F 53.6 °F 30.1 in WSW 1.9 mph 3.7 mph 89% 0 in 0.00 W/m2 unknown
01:34 57.2 °F 53.6 °F 30.1 in West 2.5 mph 3.7 mph 89% 0 in 0.00 W/m2 unknown
01:39 57.2 °F 53.6 °F 30.1 in WSW 2.5 mph 3.7 mph 89% 0 in 0.00 W/m2 unknown
01:44 57.2 °F 53.6 °F 30.1 in WSW 3.1 mph 3.7 mph 89% 0 in 0.00 W/m2 unknown
01:49 57.2 °F 53.6 °F 30.1 in West 3.1 mph 3.7 mph 89% 0 in 0.00 W/m2 unknown
01:54 57.2 °F 53.6 °F 30.1 in West 3.1 mph 3.7 mph 92% 0 in 0.00 W/m2 unknown
01:59 55.4 °F 53.6 °F 30.1 in WSW 2.5 mph 3.7 mph 92% 0 in 0.00 W/m2 unknown
02:04 55.4 °F 53.6 °F 30.1 in West 3.1 mph 3.7 mph 90% 0 in 0.00 W/m2 unknown
02:09 55.4 °F 53.6 °F 30.1 in West 2.5 mph 3.7 mph 90% 0 in 0.00 W/m2 unknown
02:14 55.4 °F 53.6 °F 30.1 in West 3.1 mph 3.7 mph 90% 0 in 0.00 W/m2 unknown
02:19 55.4 °F 53.6 °F 30.1 in West 2.5 mph 3.7 mph 91% 0 in 0.00 W/m2 unknown
02:24 55.4 °F 53.6 °F 30.1 in WSW 2.5 mph 3.7 mph 91% 0 in 0.00 W/m2 unknown
02:29 55.4 °F 53.6 °F 30.1 in WSW 2.5 mph 3.7 mph 91% 0 in 0.00 W/m2 unknown
02:34 55.4 °F 53.6 °F 30.1 in WSW 2.5 mph 3.7 mph 91% 0 in 0.00 W/m2 unknown
02:39 55.4 °F 53.6 °F 30.1 in WSW 2.5 mph 3.7 mph 91% 0 in 0.00 W/m2 unknown
02:44 55.4 °F 53.6 °F 30.1 in West 3.1 mph 3.7 mph 92% 0 in 0.00 W/m2 unknown
02:49 55.4 °F 53.6 °F 30.1 in West 3.1 mph 3.7 mph 92% 0 in 0.00 W/m2 unknown
02:54 55.4 °F 53.6 °F 30.1 in West 3.1 mph 3.7 mph 92% 0 in 0.00 W/m2 unknown
02:59 55.4 °F 53.6 °F 30.1 in WNW 3.1 mph 3.7 mph 92% 0 in 0.00 W/m2 unknown
03:04 55.4 °F 53.6 °F 30.1 in West 2.5 mph 3.7 mph 92% 0 in 0.00 W/m2 unknown
03:09 55.4 °F 53.6 °F 30.1 in West 2.5 mph 5 mph 92% 0 in 0.00 W/m2 unknown
03:14 55.4 °F 53.6 °F 30.1 in West 2.5 mph 5 mph 92% 0 in 0.00 W/m2 unknown
03:19 55.4 °F 53.6 °F 30.1 in WSW 2.5 mph 5 mph 92% 0 in 0.00 W/m2 unknown
03:24 55.4 °F 53.6 °F 30.1 in WSW 2.5 mph 3.7 mph 92% 0 in 0.00 W/m2 unknown
03:29 55.4 °F 53.6 °F 30.1 in West 3.1 mph 3.7 mph 92% 0 in 0.00 W/m2 unknown
03:34 55.4 °F 53.6 °F 30.1 in West 3.1 mph 5 mph 92% 0 in 0.00 W/m2 unknown
03:39 55.4 °F 53.6 °F 30.1 in West 3.7 mph 4.3 mph 92% 0 in 0.00 W/m2 unknown
03:44 55.4 °F 53.6 °F 30.1 in West 3.7 mph 5 mph 93% 0 in 0.00 W/m2 unknown
03:49 55.4 °F 53.6 °F 30.1 in West 3.1 mph 5 mph 93% 0 in 0.00 W/m2 unknown
03:54 55.4 °F 53.6 °F 30.1 in West 3.1 mph 5 mph 93% 0 in 0.00 W/m2 unknown
03:59 55.4 °F 53.6 °F 30.1 in West 3.1 mph 5 mph 93% 0 in 0.00 W/m2 unknown
04:04 55.4 °F 53.6 °F 30.1 in West 3.7 mph 5 mph 93% 0 in 0.00 W/m2 unknown
04:09 55.4 °F 53.6 °F 30.1 in West 3.1 mph 5 mph 93% 0 in 0.00 W/m2 unknown
04:14 55.4 °F 53.6 °F 30.1 in West 3.1 mph 5 mph 93% 0 in 0.00 W/m2 unknown
04:19 55.4 °F 53.6 °F 30.1 in West 3.1 mph 5 mph 93% 0 in 0.00 W/m2 unknown
04:24 55.4 °F 53.6 °F 30.1 in West 2.5 mph 5 mph 93% 0 in 0.00 W/m2 unknown
04:29 55.4 °F 53.6 °F 30.1 in WSW 2.5 mph 3.7 mph 93% 0 in 0.00 W/m2 unknown
04:34 55.4 °F 53.6 °F 30.1 in WSW 2.5 mph 3.7 mph 93% 0 in 0.00 W/m2 unknown
04:39 55.4 °F 53.6 °F 30.1 in WSW 3.1 mph 3.7 mph 93% 0 in 0.00 W/m2 unknown
04:44 55.4 °F 51.8 °F 30.1 in West 3.1 mph 3.7 mph 93% 0 in 0.00 W/m2 unknown
04:49 55.4 °F 53.6 °F 30.1 in West 3.1 mph 3.7 mph 94% 0 in 0.00 W/m2 unknown
04:54 55.4 °F 53.6 °F 30.1 in West 3.7 mph 5 mph 94% 0 in 0.00 W/m2 unknown
04:59 55.4 °F 53.6 °F 30.1 in West 3.1 mph 5 mph 94% 0 in 0.00 W/m2 unknown
05:04 55.4 °F 53.6 °F 30.1 in West 3.1 mph 3.7 mph 94% 0 in 0.00 W/m2 unknown
05:09 53.6 °F 53.6 °F 30.1 in West 3.1 mph 3.7 mph 94% 0 in 0.00 W/m2 unknown
05:14 53.6 °F 51.8 °F 30.1 in West 3.1 mph 3.7 mph 94% 0 in 0.00 W/m2 unknown
05:19 53.6 °F 53.6 °F 30.1 in West 3.1 mph 3.7 mph 94% 0 in 0.00 W/m2 unknown
05:24 55.4 °F 53.6 °F 30.1 in West 3.1 mph 5 mph 94% 0 in 0.00 W/m2 unknown
05:29 55.4 °F 53.6 °F 30.1 in West 3.7 mph 6.2 mph 94% 0 in 0.00 W/m2 unknown
05:34 53.6 °F 53.6 °F 30.1 in West 3.7 mph 6.2 mph 94% 0 in 0.00 W/m2 unknown
05:39 53.6 °F 51.8 °F 30.1 in West 3.7 mph 5 mph 94% 0 in 0.00 W/m2 unknown
05:44 55.4 °F 53.6 °F 30.1 in West 3.7 mph 5 mph 94% 0 in 0.00 W/m2 unknown
05:49 55.4 °F 53.6 °F 30.1 in West 3.7 mph 5 mph 94% 0 in 0.00 W/m2 unknown
05:54 55.4 °F 53.6 °F 30.1 in West 3.7 mph 5 mph 94% 0 in 0.00 W/m2 unknown
05:59 53.6 °F 53.6 °F 30.1 in West 3.7 mph 5 mph 94% 0 in 0.00 W/m2 unknown
06:04 53.6 °F 51.8 °F 30.1 in West 4.3 mph 5 mph 94% 0 in 0.00 W/m2 unknown
06:09 53.6 °F 51.8 °F 30.1 in West 3.1 mph 5 mph 94% 0 in 0.00 W/m2 unknown
06:14 53.6 °F 51.8 °F 30.1 in West 3.1 mph 5 mph 94% 0 in 0.00 W/m2 unknown
06:19 53.6 °F 51.8 °F 30.1 in West 3.7 mph 5 mph 94% 0 in 0.00 W/m2 unknown
06:24 53.6 °F 51.8 °F 30.1 in West 3.1 mph 5 mph 94% 0 in 0.00 W/m2 unknown
06:29 53.6 °F 51.8 °F 30.1 in West 4.3 mph 6.2 mph 94% 0 in 0.00 W/m2 unknown
06:34 55.4 °F 53.6 °F 30.1 in WNW 4.3 mph 6.2 mph 94% 0 in 0.00 W/m2 unknown
06:39 55.4 °F 53.6 °F 30.1 in West 4.3 mph 6.2 mph 94% 0 in 0.00 W/m2 unknown
06:44 55.4 °F 53.6 °F 30.1 in West 3.7 mph 6.2 mph 94% 0 in 0.00 W/m2 unknown
06:49 55.4 °F 53.6 °F 30.1 in West 3.7 mph 6.2 mph 94% 0 in 0.00 W/m2 unknown
06:54 55.4 °F 53.6 °F 30.1 in WNW 3.1 mph 5 mph 94% 0 in 0.00 W/m2 unknown
06:59 55.4 °F 53.6 °F 30.1 in WNW 3.7 mph 5 mph 94% 0 in 0.00 W/m2 unknown
07:04 55.4 °F 53.6 °F 30.1 in West 3.1 mph 5 mph 94% 0 in 0.00 W/m2 unknown
07:09 55.4 °F 53.6 °F 30.1 in West 3.1 mph 5 mph 94% 0 in 0.00 W/m2 unknown
07:14 55.4 °F 53.6 °F 30.1 in West 4.3 mph 6.8 mph 94% 0 in 0.00 W/m2 unknown
07:19 55.4 °F 53.6 °F 30.1 in West 4.3 mph 6.8 mph 94% 0 in 0.00 W/m2 unknown
07:24 55.4 °F 53.6 °F 30.1 in West 3.1 mph 5 mph 94% 0 in 0.00 W/m2 unknown
07:29 55.4 °F 53.6 °F 30.1 in West 4.3 mph 5 mph 94% 0 in 0.00 W/m2 unknown
07:34 53.6 °F 53.6 °F 30.1 in West 4.3 mph 6.2 mph 94% 0 in 5.00 W/m2 unknown
07:39 55.4 °F 53.6 °F 30.1 in WNW 4.3 mph 6.2 mph 94% 0 in 9.00 W/m2 unknown
07:44 55.4 °F 53.6 °F 30.1 in West 5 mph 6.2 mph 94% 0 in 12.00 W/m2 unknown
07:49 55.4 °F 53.6 °F 30.1 in West 5 mph 6.2 mph 94% 0 in 16.00 W/m2 unknown
07:54 55.4 °F 53.6 °F 30.1 in West 3.1 mph 5 mph 94% 0 in 21.00 W/m2 unknown
07:59 55.4 °F 53.6 °F 30.1 in West 3.7 mph 6.2 mph 94% 0 in 25.00 W/m2 unknown
08:04 55.4 °F 53.6 °F 30.1 in West 3.1 mph 6.2 mph 94% 0 in 28.00 W/m2 unknown
08:09 55.4 °F 53.6 °F 30.1 in West 2.5 mph 3.7 mph 94% 0 in 30.00 W/m2 unknown
08:14 55.4 °F 53.6 °F 30.1 in West 3.1 mph 3.7 mph 94% 0 in 37.00 W/m2 unknown
08:19 55.4 °F 53.6 °F 30.1 in West 3.1 mph 3.7 mph 94% 0 in 46.00 W/m2 unknown
08:24 55.4 °F 53.6 °F 30.1 in West 3.1 mph 3.7 mph 94% 0 in 53.00 W/m2 unknown
08:29 55.4 °F 53.6 °F 30.1 in West 3.7 mph 5 mph 94% 0 in 67.00 W/m2 unknown
08:34 55.4 °F 53.6 °F 30.2 in West 4.3 mph 5 mph 94% 0 in 84.00 W/m2 unknown
08:39 57.2 °F 55.4 °F 30.2 in West 5 mph 6.2 mph 94% 0 in 97.00 W/m2 unknown
08:44 57.2 °F 55.4 °F 30.2 in West 5 mph 6.2 mph 94% 0 in 111.00 W/m2 unknown
08:49 57.2 °F 55.4 °F 30.2 in West 5 mph 6.2 mph 94% 0 in 125.00 W/m2 unknown
08:54 57.2 °F 55.4 °F 30.2 in West 5 mph 6.2 mph 93% 0 in 135.00 W/m2 unknown
08:59 57.2 °F 55.4 °F 30.2 in West 5 mph 6.2 mph 93% 0 in 151.00 W/m2 unknown
09:04 57.2 °F 55.4 °F 30.2 in West 5 mph 6.8 mph 93% 0 in 165.00 W/m2 unknown
09:09 57.2 °F 55.4 °F 30.2 in West 5.6 mph 6.8 mph 93% 0 in 176.00 W/m2 unknown
09:14 59 °F 55.4 °F 30.2 in West 5 mph 6.8 mph 92% 0 in 188.00 W/m2 unknown
09:19 59 °F 55.4 °F 30.2 in West 5.6 mph 6.8 mph 92% 0 in 199.00 W/m2 unknown
09:24 59 °F 55.4 °F 30.2 in West 6.2 mph 6.8 mph 91% 0 in 199.00 W/m2 unknown
09:29 59 °F 57.2 °F 30.2 in West 5 mph 6.8 mph 91% 0 in 199.00 W/m2 unknown
09:34 59 °F 57.2 °F 30.2 in West 5 mph 6.8 mph 90% 0 in 236.00 W/m2 unknown
09:39 60.8 °F 57.2 °F 30.2 in West 5.6 mph 6.8 mph 90% 0 in 251.00 W/m2 unknown
09:44 60.8 °F 57.2 °F 30.2 in West 5.6 mph 6.8 mph 89% 0 in 265.00 W/m2 unknown
09:49 60.8 °F 57.2 °F 30.2 in West 5 mph 6.8 mph 89% 0 in 274.00 W/m2 unknown
09:54 60.8 °F 57.2 °F 30.2 in West 5.6 mph 6.8 mph 88% 0 in 295.00 W/m2 unknown
09:59 62.6 °F 57.2 °F 30.2 in West 4.3 mph 6.8 mph 87% 0 in 313.00 W/m2 unknown
10:04 62.6 °F 57.2 °F 30.2 in West 5 mph 6.8 mph 86% 0 in 329.00 W/m2 unknown
10:09 62.6 °F 59 °F 30.2 in West 6.8 mph 8.1 mph 85% 0 in 348.00 W/m2 unknown
10:14 62.6 °F 57.2 °F 30.2 in West 6.8 mph 8.1 mph 84% 0 in 348.00 W/m2 unknown
10:19 64.4 °F 59 °F 30.2 in West 5.6 mph 6.8 mph 83% 0 in 371.00 W/m2 unknown
10:24 64.4 °F 59 °F 30.2 in West 6.2 mph 8.1 mph 82% 0 in 376.00 W/m2 unknown
10:29 64.4 °F 59 °F 30.2 in West 6.2 mph 8.1 mph 83% 0 in 381.00 W/m2 unknown
10:34 66.2 °F 59 °F 30.2 in WNW 5 mph 8.1 mph 81% 0 in 397.00 W/m2 unknown
10:39 66.2 °F 59 °F 30.2 in West 5 mph 6.8 mph 80% 0 in 385.00 W/m2 unknown
10:44 66.2 °F 59 °F 30.2 in West 6.2 mph 8.1 mph 80% 0 in 424.00 W/m2 unknown
10:49 66.2 °F 59 °F 30.2 in West 7.5 mph 9.3 mph 78% 0 in 431.00 W/m2 unknown
10:54 66.2 °F 59 °F 30.2 in West 6.8 mph 9.3 mph 78% 0 in 429.00 W/m2 unknown
10:59 66.2 °F 59 °F 30.2 in West 6.2 mph 8.7 mph 77% 0 in 454.00 W/m2 unknown
11:04 68 °F 59 °F 30.2 in West 6.2 mph 9.3 mph 76% 0 in 450.00 W/m2 unknown
11:09 68 °F 59 °F 30.2 in West 6.2 mph 8.7 mph 75% 0 in 450.00 W/m2 unknown
11:14 68 °F 59 °F 30.2 in West 6.2 mph 8.1 mph 73% 0 in 469.00 W/m2 unknown
11:19 68 °F 59 °F 30.2 in WNW 5 mph 8.1 mph 73% 0 in 482.00 W/m2 unknown
11:24 68 °F 59 °F 30.2 in WNW 5.6 mph 8.7 mph 72% 0 in 504.00 W/m2 unknown
11:29 68 °F 59 °F 30.2 in West 6.8 mph 9.3 mph 72% 0 in 527.00 W/m2 unknown
11:34 69.8 °F 59 °F 30.2 in WNW 6.8 mph 9.3 mph 71% 0 in 527.00 W/m2 unknown
11:39 69.8 °F 59 °F 30.2 in WNW 6.2 mph 8.7 mph 71% 0 in 519.00 W/m2 unknown
11:44 69.8 °F 59 °F 30.2 in West 7.5 mph 10.6 mph 71% 0 in 561.00 W/m2 unknown
11:49 69.8 °F 59 °F 30.2 in West 6.8 mph 9.9 mph 71% 0 in 561.00 W/m2 unknown
11:54 69.8 °F 60.8 °F 30.2 in WNW 5 mph 8.7 mph 70% 0 in 533.00 W/m2 unknown
11:59 69.8 °F 59 °F 30.2 in WNW 5 mph 6.8 mph 69% 0 in 519.00 W/m2 unknown
12:04 69.8 °F 59 °F 30.2 in WNW 5 mph 6.8 mph 69% 0 in 499.00 W/m2 unknown
12:09 69.8 °F 59 °F 30.2 in WNW 5.6 mph 9.3 mph 68% 0 in 543.00 W/m2 unknown
12:14 71.6 °F 59 °F 30.2 in WSW 5 mph 8.7 mph 68% 0 in 557.00 W/m2 unknown
12:19 71.6 °F 59 °F 30.2 in WSW 5.6 mph 8.1 mph 66% 0 in 476.00 W/m2 unknown
12:24 69.8 °F 59 °F 30.2 in West 5 mph 6.8 mph 66% 0 in 517.00 W/m2 unknown
12:29 71.6 °F 59 °F 30.2 in NW 3.1 mph 6.2 mph 65% 0 in 538.00 W/m2 unknown
12:34 71.6 °F 59 °F 30.2 in WSW 3.1 mph 3.7 mph 66% 0 in 605.00 W/m2 unknown
12:39 71.6 °F 59 °F 30.2 in WNW 3.7 mph 5 mph 66% 0 in 605.00 W/m2 unknown
12:44 71.6 °F 59 °F 30.2 in WNW 3.7 mph 5 mph 64% 0 in 570.00 W/m2 unknown
12:49 71.6 °F 59 °F 30.2 in NW 3.7 mph 5 mph 64% 0 in 675.00 W/m2 unknown
12:54 71.6 °F 59 °F 30.2 in WNW 4.3 mph 6.2 mph 63% 0 in 675.00 W/m2 unknown
12:59 73.4 °F 59 °F 30.2 in NW 4.3 mph 6.8 mph 63% 0 in 635.00 W/m2 unknown
13:04 73.4 °F 59 °F 30.2 in North 3.1 mph 6.8 mph 62% 0 in 566.00 W/m2 unknown
13:09 73.4 °F 59 °F 30.2 in NW 3.7 mph 6.2 mph 61% 0 in 628.00 W/m2 unknown
13:14 73.4 °F 59 °F 30.2 in WNW 3.1 mph 6.2 mph 61% 0 in 629.00 W/m2 unknown
13:19 73.4 °F 59 °F 30.2 in NNW 3.7 mph 6.2 mph 61% 0 in 550.00 W/m2 unknown
13:24 73.4 °F 59 °F 30.2 in WSW 4.3 mph 6.2 mph 61% 0 in 520.00 W/m2 unknown
13:29 73.4 °F 59 °F 30.2 in WNW 5 mph 8.1 mph 62% 0 in 682.00 W/m2 unknown
13:34 73.4 °F 59 °F 30.2 in WNW 5 mph 8.1 mph 61% 0 in 610.00 W/m2 unknown
13:39 73.4 °F 59 °F 30.2 in NW 3.7 mph 6.2 mph 61% 0 in 364.00 W/m2 unknown
13:44 73.4 °F 59 °F 30.2 in NNE 3.1 mph 6.2 mph 61% 0 in 608.00 W/m2 unknown
13:49 73.4 °F 59 °F 30.2 in NNW 3.7 mph 5.6 mph 62% 0 in 533.00 W/m2 unknown
13:54 73.4 °F 59 °F 30.2 in NNW 5 mph 8.1 mph 61% 0 in 591.00 W/m2 unknown
13:59 73.4 °F 59 °F 30.2 in NW 5 mph 8.1 mph 61% 0 in 575.00 W/m2 unknown
14:04 73.4 °F 59 °F 30.2 in WSW 3.7 mph 8.1 mph 60% 0 in 538.00 W/m2 unknown
14:09 73.4 °F 59 °F 30.2 in West 3.7 mph 5 mph 60% 0 in 564.00 W/m2 unknown
14:14 73.4 °F 59 °F 30.2 in WSW 3.1 mph 5 mph 61% 0 in 610.00 W/m2 unknown
14:19 75.2 °F 60.8 °F 30.2 in NW 3.7 mph 6.2 mph 61% 0 in 628.00 W/m2 unknown
14:24 75.2 °F 59 °F 30.2 in NW 3.1 mph 6.2 mph 60% 0 in 626.00 W/m2 unknown
14:29 75.2 °F 59 °F 30.2 in South 2.5 mph 5 mph 61% 0 in 601.00 W/m2 unknown
14:34 75.2 °F 59 °F 30.1 in WNW 5.6 mph 6.8 mph 58% 0 in 580.00 W/m2 unknown
14:39 75.2 °F 59 °F 30.1 in West 5 mph 6.8 mph 57% 0 in 540.00 W/m2 unknown
14:44 75.2 °F 59 °F 30.1 in North 4.3 mph 6.8 mph 59% 0 in 547.00 W/m2 unknown
14:49 75.2 °F 59 °F 30.1 in WNW 5 mph 6.8 mph 59% 0 in 540.00 W/m2 unknown
14:54 75.2 °F 59 °F 30.1 in ESE 2.5 mph 6.8 mph 59% 0 in 522.00 W/m2 unknown
14:59 75.2 °F 59 °F 30.1 in NW 2.5 mph 5 mph 58% 0 in 519.00 W/m2 unknown
15:04 75.2 °F 59 °F 30.1 in NW 3.1 mph 5 mph 59% 0 in 524.00 W/m2 unknown
15:09 75.2 °F 59 °F 30.1 in NW 3.1 mph 5 mph 58% 0 in 527.00 W/m2 unknown
15:14 75.2 °F 59 °F 30.1 in North 4.3 mph 6.2 mph 59% 0 in 527.00 W/m2 unknown
15:19 75.2 °F 59 °F 30.1 in NNE 3.1 mph 6.2 mph 59% 0 in 436.00 W/m2 unknown
15:24 75.2 °F 59 °F 30.1 in NNE 3.1 mph 5 mph 59% 0 in 506.00 W/m2 unknown
15:29 75.2 °F 59 °F 30.1 in North 2.5 mph 3.7 mph 59% 0 in 501.00 W/m2 unknown
15:34 75.2 °F 59 °F 30.1 in NNW 3.1 mph 5 mph 58% 0 in 492.00 W/m2 unknown
15:39 75.2 °F 59 °F 30.1 in NNE 3.1 mph 4.3 mph 58% 0 in 471.00 W/m2 unknown
15:44 75.2 °F 59 °F 30.1 in North 3.1 mph 5 mph 58% 0 in 466.00 W/m2 unknown
15:49 75.2 °F 59 °F 30.1 in NNW 3.1 mph 5 mph 57% 0 in 455.00 W/m2 unknown
15:54 75.2 °F 59 °F 30.1 in North 2.5 mph 5 mph 57% 0 in 396.00 W/m2 unknown
15:59 75.2 °F 59 °F 30.1 in NNE 2.5 mph 3.7 mph 60% 0 in 406.00 W/m2 unknown
16:04 75.2 °F 59 °F 30.1 in NNW 3.1 mph 6.2 mph 58% 0 in 415.00 W/m2 unknown
16:09 75.2 °F 59 °F 30.1 in NNW 3.1 mph 5.6 mph 57% 0 in 362.00 W/m2 unknown
16:14 75.2 °F 59 °F 30.1 in NNW 1.9 mph 6.2 mph 57% 0 in 371.00 W/m2 unknown
16:19 75.2 °F 59 °F 30.1 in NNW 1.9 mph 3.7 mph 58% 0 in 383.00 W/m2 unknown
16:24 75.2 °F 59 °F 30.1 in NNE 3.7 mph 6.8 mph 58% 0 in 378.00 W/m2 unknown
16:29 75.2 °F 59 °F 30.1 in NE 4.3 mph 6.8 mph 57% 0 in 343.00 W/m2 unknown
16:34 75.2 °F 59 °F 30.1 in ENE 4.3 mph 6.8 mph 58% 0 in 332.00 W/m2 unknown
16:39 75.2 °F 59 °F 30.1 in ENE 4.3 mph 6.8 mph 57% 0 in 311.00 W/m2 unknown
16:44 75.2 °F 59 °F 30.1 in ENE 5 mph 6.8 mph 58% 0 in 285.00 W/m2 unknown
16:49 75.2 °F 59 °F 30.1 in NE 2.5 mph 5 mph 58% 0 in 255.00 W/m2 unknown
16:54 75.2 °F 59 °F 30.1 in ENE 3.1 mph 5 mph 59% 0 in 244.00 W/m2 unknown
16:59 73.4 °F 59 °F 30.1 in East 1.9 mph 5 mph 59% 0 in 232.00 W/m2 unknown
17:04 73.4 °F 59 °F 30.1 in ENE 3.7 mph 5 mph 59% 0 in 225.00 W/m2 unknown
17:09 73.4 °F 57.2 °F 30.1 in NE 4.3 mph 5 mph 58% 0 in 211.00 W/m2 unknown
17:14 73.4 °F 59 °F 30.1 in East 1.9 mph 5 mph 59% 0 in 193.00 W/m2 unknown
17:19 73.4 °F 59 °F 30.1 in NNE 1.9 mph 3.7 mph 59% 0 in 181.00 W/m2 unknown
17:24 73.4 °F 59 °F 30.1 in NNW 1.2 mph 3.1 mph 59% 0 in 155.00 W/m2 unknown
17:29 73.4 °F 59 °F 30.1 in NW 0.6 mph 1.9 mph 58% 0 in 146.00 W/m2 unknown
17:34 73.4 °F 59 °F 30.1 in ENE 1.2 mph 2.5 mph 60% 0 in 123.00 W/m2 unknown
17:39 73.4 °F 59 °F 30.1 in ENE 1.2 mph 2.5 mph 62% 0 in 102.00 W/m2 unknown
17:44 73.4 °F 59 °F 30.1 in ENE 1.2 mph 1.9 mph 63% 0 in 97.00 W/m2 unknown
17:49 71.6 °F 59 °F 30.1 in ENE 0.6 mph 1.2 mph 63% 0 in 86.00 W/m2 unknown
17:54 71.6 °F 59 °F 30.1 in ENE 0.6 mph 1.2 mph 65% 0 in 76.00 W/m2 unknown
17:59 71.6 °F 59 °F 30.1 in ENE 0.6 mph 1.2 mph 64% 0 in 63.00 W/m2 unknown
18:04 71.6 °F 59 °F 30.1 in ENE 1.2 mph 2.5 mph 65% 0 in 51.00 W/m2 unknown
18:09 71.6 °F 59 °F 30.1 in ENE 1.2 mph 1.9 mph 67% 0 in 42.00 W/m2 unknown
18:14 71.6 °F 59 °F 30.1 in ENE 1.2 mph 2.5 mph 67% 0 in 33.00 W/m2 unknown
18:19 69.8 °F 59 °F 30.1 in ENE 1.2 mph 2.5 mph 69% 0 in 26.00 W/m2 unknown
18:24 69.8 °F 59 °F 30.1 in ENE 0.6 mph 1.9 mph 69% 0 in 19.00 W/m2 unknown
18:29 69.8 °F 59 °F 30.1 in Calm   1.2 mph 70% 0 in 14.00 W/m2 unknown
18:34 69.8 °F 59 °F 30.1 in Calm     72% 0 in 9.00 W/m2 unknown
18:39 68 °F 59 °F 30.1 in Calm     73% 0 in 5.00 W/m2 unknown
18:44 68 °F 59 °F 30.1 in Calm     73% 0 in 0.00 W/m2 unknown
18:49 68 °F 59 °F 30.1 in Calm     73% 0 in 0.00 W/m2 unknown
18:54 68 °F 59 °F 30.1 in Calm     76% 0 in 0.00 W/m2 unknown
18:59 66.2 °F 59 °F 30.1 in Calm     76% 0 in 0.00 W/m2 unknown
19:04 66.2 °F 59 °F 30.1 in Calm     76% 0 in 0.00 W/m2 unknown
19:09 66.2 °F 59 °F 30.1 in ESE 5.6 mph 8.1 mph 76% 0 in 0.00 W/m2 unknown
19:14 66.2 °F 57.2 °F 30.1 in ESE 5.6 mph 8.1 mph 79% 0 in 0.00 W/m2 unknown
19:19 64.4 °F 59 °F 30.1 in East 1.9 mph 3.7 mph 80% 0 in 0.00 W/m2 unknown
19:24 64.4 °F 59 °F 30.1 in East 1.9 mph 3.7 mph 80% 0 in 0.00 W/m2 unknown
19:29 64.4 °F 59 °F 30.1 in East 2.5 mph 3.7 mph 80% 0 in 0.00 W/m2 unknown
19:34 64.4 °F 59 °F 30.1 in East 1.9 mph 3.1 mph 81% 0 in 0.00 W/m2 unknown
19:39 64.4 °F 59 °F 30.1 in East 1.9 mph 2.5 mph 81% 0 in 0.00 W/m2 unknown
19:44 64.4 °F 59 °F 30.1 in East 1.9 mph 2.5 mph 81% 0 in 0.00 W/m2 unknown
19:49 64.4 °F 59 °F 30.1 in East 2.5 mph 5 mph 82% 0 in 0.00 W/m2 unknown
19:54 64.4 °F 57.2 °F 30.1 in East 2.5 mph 5 mph 82% 0 in 0.00 W/m2 unknown
19:59 64.4 °F 59 °F 30.1 in East 1.2 mph 3.1 mph 81% 0 in 0.00 W/m2 unknown
20:04 64.4 °F 57.2 °F 30.1 in East 1.2 mph 2.5 mph 81% 0 in 0.00 W/m2 unknown
20:09 64.4 °F 57.2 °F 30.1 in East 1.2 mph 2.5 mph 82% 0 in 0.00 W/m2 unknown
20:14 62.6 °F 57.2 °F 30.1 in East 1.2 mph 2.5 mph 82% 0 in 0.00 W/m2 unknown
20:19 62.6 °F 57.2 °F 30.1 in East 1.2 mph 2.5 mph 82% 0 in 0.00 W/m2 unknown
20:24 62.6 °F 57.2 °F 30.1 in East 1.2 mph 2.5 mph 82% 0 in 0.00 W/m2 unknown
20:29 62.6 °F 57.2 °F 30.1 in East 1.2 mph 2.5 mph 83% 0 in 0.00 W/m2 unknown
20:34 62.6 °F 57.2 °F 30.1 in East 1.2 mph 2.5 mph 83% 0 in 0.00 W/m2 unknown
20:39 62.6 °F 57.2 °F 30.1 in Calm   1.9 mph 83% 0 in 0.00 W/m2 unknown
20:44 62.6 °F 57.2 °F 30.1 in Calm     83% 0 in 0.00 W/m2 unknown
20:49 62.6 °F 57.2 °F 30.1 in Calm     83% 0 in 0.00 W/m2 unknown
20:54 62.6 °F 57.2 °F 30.1 in Calm     84% 0 in 0.00 W/m2 unknown
20:59 62.6 °F 57.2 °F 30.1 in East 0.6 mph 1.2 mph 84% 0 in 0.00 W/m2 unknown
21:04 62.6 °F 57.2 °F 30.1 in East 1.2 mph 1.2 mph 83% 0 in 0.00 W/m2 unknown
21:09 62.6 °F 57.2 °F 30.1 in Calm   1.2 mph 83% 0 in 0.00 W/m2 unknown
21:14 62.6 °F 57.2 °F 30.1 in Calm   1.2 mph 84% 0 in 0.00 W/m2 unknown
21:19 62.6 °F 57.2 °F 30.1 in East 1.2 mph 2.5 mph 84% 0 in 0.00 W/m2 unknown
21:24 62.6 °F 57.2 °F 30.1 in East 0.6 mph 1.9 mph 84% 0 in 0.00 W/m2 unknown
21:29 62.6 °F 57.2 °F 30.1 in Calm   1.2 mph 84% 0 in 0.00 W/m2 unknown
21:34 62.6 °F 57.2 °F 30.1 in Calm     84% 0 in 0.00 W/m2 unknown
21:39 60.8 °F 57.2 °F 30.1 in East 1.2 mph 1.9 mph 85% 0 in 0.00 W/m2 unknown
21:44 60.8 °F 57.2 °F 30.2 in East 1.2 mph 2.5 mph 85% 0 in 0.00 W/m2 unknown
21:49 60.8 °F 57.2 °F 30.2 in East 1.2 mph 1.9 mph 85% 0 in 0.00 W/m2 unknown
21:54 60.8 °F 57.2 °F 30.2 in East 0.6 mph 1.2 mph 85% 0 in 0.00 W/m2 unknown
21:59 60.8 °F 57.2 °F 30.2 in East 1.2 mph 2.5 mph 86% 0 in 0.00 W/m2 unknown
22:04 60.8 °F 55.4 °F 30.2 in East 1.9 mph 3.1 mph 86% 0 in 0.00 W/m2 unknown
22:09 60.8 °F 55.4 °F 30.2 in NE 2.5 mph 3.7 mph 86% 0 in 0.00 W/m2 unknown
22:14 60.8 °F 55.4 °F 30.2 in NNE 2.5 mph 3.7 mph 86% 0 in 0.00 W/m2 unknown
22:19 60.8 °F 55.4 °F 30.2 in NE 2.5 mph 3.7 mph 86% 0 in 0.00 W/m2 unknown
22:24 60.8 °F 55.4 °F 30.2 in NE 3.1 mph 3.7 mph 86% 0 in 0.00 W/m2 unknown
22:29 60.8 °F 55.4 °F 30.2 in NE 3.1 mph 3.7 mph 85% 0 in 0.00 W/m2 unknown
22:34 60.8 °F 55.4 °F 30.2 in NE 3.1 mph 3.7 mph 85% 0 in 0.00 W/m2 unknown
22:39 60.8 °F 55.4 °F 30.2 in NE 3.1 mph 3.7 mph 84% 0 in 0.00 W/m2 unknown
22:44 60.8 °F 55.4 °F 30.2 in NE 2.5 mph 3.7 mph 84% 0 in 0.00 W/m2 unknown
22:49 60.8 °F 55.4 °F 30.2 in ENE 1.9 mph 3.1 mph 84% 0 in 0.00 W/m2 unknown
22:54 60.8 °F 55.4 °F 30.2 in NE 2.5 mph 3.7 mph 84% 0 in 0.00 W/m2 unknown
22:59 60.8 °F 55.4 °F 30.2 in NNE 2.5 mph 3.7 mph 84% 0 in 0.00 W/m2 unknown
23:04 60.8 °F 55.4 °F 30.2 in NNE 2.5 mph 3.7 mph 84% 0 in 0.00 W/m2 unknown
23:09 60.8 °F 55.4 °F 30.2 in NE 1.9 mph 3.7 mph 84% 0 in 0.00 W/m2 unknown
23:14 60.8 °F 55.4 °F 30.2 in NE 1.9 mph 3.7 mph 83% 0 in 0.00 W/m2 unknown
23:19 60.8 °F 55.4 °F 30.2 in NE 2.5 mph 3.7 mph 83% 0 in 0.00 W/m2 unknown
23:24 60.8 °F 55.4 °F 30.2 in NE 2.5 mph 3.7 mph 84% 0 in 0.00 W/m2 unknown
23:29 60.8 °F 55.4 °F 30.2 in NE 2.5 mph 3.7 mph 84% 0 in 0.00 W/m2 unknown
23:34 60.8 °F 55.4 °F 30.2 in NE 2.5 mph 3.7 mph 84% 0 in 0.00 W/m2 unknown
23:39 60.8 °F 55.4 °F 30.2 in NE 1.9 mph 3.7 mph 84% 0 in 0.00 W/m2 unknown
23:44 60.8 °F 55.4 °F 30.2 in NE 1.9 mph 3.1 mph 85% 0 in 0.00 W/m2 unknown
23:49 59 °F 55.4 °F 30.2 in NE 1.9 mph 2.5 mph 85% 0 in 0.00 W/m2 unknown
23:54 59 °F 55.4 °F 30.2 in NE 1.9 mph 3.7 mph 85% 0 in 0.00 W/m2 unknown
23:59 59 °F 55.4 °F 30.2 in NE 2.5 mph 3.7 mph 85% 0 in 0.00 W/m2 unknown
Stazione Meteorologica MeteoMincio Rivalta s/M (MN)
Con i complimenti di Weather Underground - 4 mb



METEO PILLOLE
Maggior quantità di pioggia caduta in 48 ore
Cherrapunji (1313 m) - India
Tra il 15 e 16 giugno 1995 caddero 2493mm di pioggia.
Share

Non seguire questo link o sarai bannato dal sito!